Time,TemperatureF,DewpointF,PressureIn,WindDirection,WindDirectionDegrees,WindSpeedMPH,WindSpeedGustMPH,Humidity,HourlyPrecipIn,Conditions,Clouds,dailyrainin,SoftwareType,DateUTC
2013-01-07 00:02:00,37.0,26.0,30.22,SSW,193,4.0,13.0,63,0.00,,,0.00,,2013-01-07 06:02:00,
2013-01-07 00:12:00,37.0,26.0,30.22,SSW,193,4.0,13.0,63,0.00,,,0.00,,2013-01-07 06:12:00,
2013-01-07 00:22:00,38.0,26.0,30.23,South,175,5.0,16.0,62,0.00,,,0.00,,2013-01-07 06:22:00,
2013-01-07 00:32:00,38.0,26.0,30.23,SSW,209,6.0,13.0,61,0.00,,,0.00,,2013-01-07 06:32:00,
2013-01-07 00:42:00,38.0,26.0,30.23,SSW,209,6.0,13.0,61,0.00,,,0.00,,2013-01-07 06:42:00,
2013-01-07 00:52:00,38.0,26.0,30.22,WSW,257,6.0,13.0,61,0.00,,,0.00,,2013-01-07 06:52:00,
2013-01-07 01:02:00,37.0,25.0,30.22,South,184,10.0,13.0,62,0.00,,,0.00,,2013-01-07 07:02:00,
2013-01-07 01:12:00,37.0,25.0,30.22,South,184,10.0,13.0,62,0.00,,,0.00,,2013-01-07 07:12:00,
2013-01-07 01:22:00,37.0,25.0,30.22,SE,140,4.0,14.0,62,0.00,,,0.00,,2013-01-07 07:22:00,
2013-01-07 01:33:00,37.0,26.0,30.22,South,184,7.0,12.0,63,0.00,,,0.00,,2013-01-07 07:33:00,
2013-01-07 01:42:00,37.0,26.0,30.22,South,184,7.0,12.0,63,0.00,,,0.00,,2013-01-07 07:42:00,
2013-01-07 01:53:00,36.0,25.0,30.21,SSE,153,6.0,13.0,63,0.00,,,0.00,,2013-01-07 07:53:00,
2013-01-07 02:02:00,36.0,25.0,30.21,SSW,197,2.0,12.0,64,0.00,,,0.00,,2013-01-07 08:02:00,
2013-01-07 02:12:00,36.0,25.0,30.21,SSW,197,2.0,12.0,64,0.00,,,0.00,,2013-01-07 08:12:00,
2013-01-07 02:22:00,36.0,25.0,30.21,SSW,205,2.0,11.0,65,0.00,,,0.00,,2013-01-07 08:22:00,
2013-01-07 02:32:00,36.0,25.0,30.20,SSE,159,1.0,10.0,65,0.00,,,0.00,,2013-01-07 08:32:00,
2013-01-07 02:42:00,36.0,25.0,30.20,SSE,159,1.0,10.0,65,0.00,,,0.00,,2013-01-07 08:42:00,
2013-01-07 02:53:00,36.0,25.0,30.20,SSW,193,3.0,12.0,65,0.00,,,0.00,,2013-01-07 08:53:00,
2013-01-07 03:02:00,36.0,25.0,30.20,South,179,7.0,12.0,64,0.00,,,0.00,,2013-01-07 09:02:00,
2013-01-07 03:12:00,36.0,25.0,30.20,South,179,7.0,12.0,64,0.00,,,0.00,,2013-01-07 09:12:00,
2013-01-07 03:22:00,36.0,25.0,30.20,SSW,193,3.0,14.0,63,0.00,,,0.00,,2013-01-07 09:22:00,
2013-01-07 03:32:00,36.0,25.0,30.20,SSW,200,8.0,14.0,64,0.00,,,0.00,,2013-01-07 09:32:00,
2013-01-07 03:42:00,36.0,25.0,30.20,SSW,200,8.0,14.0,64,0.00,,,0.00,,2013-01-07 09:42:00,
2013-01-07 03:52:00,36.0,25.0,30.20,SSW,211,6.0,12.0,64,0.00,,,0.00,,2013-01-07 09:52:00,
2013-01-07 04:02:00,36.0,25.0,30.19,SW,219,0.0,12.0,64,0.00,,,0.00,,2013-01-07 10:02:00,
2013-01-07 04:12:00,36.0,25.0,30.19,SSW,212,9.0,13.0,64,0.00,,,0.00,,2013-01-07 10:12:00,
2013-01-07 04:22:00,36.0,25.0,30.19,SSW,212,9.0,13.0,64,0.00,,,0.00,,2013-01-07 10:22:00,
2013-01-07 04:32:00,36.0,25.0,30.19,SSW,212,9.0,13.0,64,0.00,,,0.00,,2013-01-07 10:32:00,
2013-01-07 04:42:00,36.0,25.0,30.19,SSW,212,9.0,13.0,64,0.00,,,0.00,,2013-01-07 10:42:00,
2013-01-07 04:52:00,35.0,24.0,30.17,South,181,4.0,4.0,63,0.00,,,0.00,,2013-01-07 10:52:00,
2013-01-07 05:02:00,35.0,24.0,30.17,South,181,4.0,4.0,63,0.00,,,0.00,,2013-01-07 11:02:00,
2013-01-07 05:12:00,35.0,24.0,30.17,South,181,4.0,4.0,63,0.00,,,0.00,,2013-01-07 11:12:00,
2013-01-07 05:22:00,35.0,24.0,30.15,South,181,4.0,4.0,63,0.00,,,0.00,,2013-01-07 11:22:00,
2013-01-07 05:32:00,35.0,24.0,30.14,South,181,4.0,4.0,63,0.00,,,0.00,,2013-01-07 11:32:00,
2013-01-07 05:43:00,35.0,24.0,30.14,South,181,4.0,4.0,63,0.00,,,0.00,,2013-01-07 11:43:00,
2013-01-07 05:53:00,35.0,24.0,30.13,South,181,4.0,4.0,63,0.00,,,0.00,,2013-01-07 11:53:00,
2013-01-07 06:02:00,35.0,24.0,30.14,South,181,4.0,4.0,63,0.00,,,0.00,,2013-01-07 12:02:00,
2013-01-07 06:12:00,35.0,24.0,30.14,South,181,4.0,4.0,63,0.00,,,0.00,,2013-01-07 12:12:00,
2013-01-07 06:22:00,35.0,24.0,30.14,South,181,4.0,4.0,63,0.00,,,0.00,,2013-01-07 12:22:00,
2013-01-07 06:32:00,35.0,24.0,30.14,South,181,4.0,4.0,63,0.00,,,0.00,,2013-01-07 12:32:00,
2013-01-07 06:43:00,35.0,24.0,30.14,South,181,4.0,4.0,63,0.00,,,0.00,,2013-01-07 12:43:00,
2013-01-07 06:53:00,35.0,24.0,30.13,South,181,4.0,4.0,63,0.00,,,0.00,,2013-01-07 12:53:00,
2013-01-07 07:02:00,35.0,24.0,30.14,South,181,4.0,4.0,63,0.00,,,0.00,,2013-01-07 13:02:00,
2013-01-07 07:12:00,35.0,24.0,30.14,South,181,4.0,4.0,63,0.00,,,0.00,,2013-01-07 13:12:00,
2013-01-07 07:23:00,35.0,24.0,30.15,South,181,4.0,4.0,63,0.00,,,0.00,,2013-01-07 13:23:00,
2013-01-07 07:33:00,35.0,24.0,30.14,South,181,4.0,4.0,63,0.00,,,0.00,,2013-01-07 13:33:00,
2013-01-07 07:42:00,35.0,24.0,30.14,South,181,4.0,4.0,63,0.00,,,0.00,,2013-01-07 13:42:00,
2013-01-07 07:53:00,35.0,24.0,30.14,South,181,4.0,4.0,63,0.00,,,0.00,,2013-01-07 13:53:00,
2013-01-07 08:03:00,35.0,24.0,30.14,South,181,4.0,4.0,63,0.00,,,0.00,,2013-01-07 14:03:00,
2013-01-07 08:12:00,35.0,24.0,30.14,South,181,4.0,4.0,63,0.00,,,0.00,,2013-01-07 14:12:00,
2013-01-07 08:22:00,36.0,25.0,30.14,South,175,0.0,4.0,65,0.00,,,0.00,,2013-01-07 14:22:00,
2013-01-07 08:33:00,37.0,26.0,30.14,SW,236,2.0,7.0,63,0.00,,,0.00,,2013-01-07 14:33:00,
2013-01-07 08:42:00,37.0,26.0,30.14,SW,236,2.0,7.0,63,0.00,,,0.00,,2013-01-07 14:42:00,
2013-01-07 08:53:00,37.0,26.0,30.13,ESE,121,4.0,9.0,63,0.00,,,0.00,,2013-01-07 14:53:00,
2013-01-07 09:03:00,38.0,27.0,30.14,West,277,4.0,13.0,63,0.00,,,0.00,,2013-01-07 15:03:00,
2013-01-07 09:12:00,38.0,27.0,30.14,West,277,4.0,13.0,63,0.00,,,0.00,,2013-01-07 15:12:00,
2013-01-07 09:22:00,38.0,26.0,30.14,SSW,200,5.0,10.0,62,0.00,,,0.00,,2013-01-07 15:22:00,
2013-01-07 09:33:00,39.0,26.0,30.14,SW,223,6.0,17.0,60,0.00,,,0.00,,2013-01-07 15:33:00,
2013-01-07 09:42:00,39.0,26.0,30.14,SW,223,6.0,17.0,60,0.00,,,0.00,,2013-01-07 15:42:00,
2013-01-07 09:53:00,40.0,27.0,30.14,SE,146,2.0,14.0,60,0.00,,,0.00,,2013-01-07 15:53:00,
2013-01-07 10:02:00,42.0,28.0,30.15,SW,221,5.0,15.0,57,0.00,,,0.00,,2013-01-07 16:02:00,
2013-01-07 10:12:00,42.0,28.0,30.15,SW,221,5.0,15.0,57,0.00,,,0.00,,2013-01-07 16:12:00,
2013-01-07 10:22:00,42.0,27.0,30.16,West,259,4.0,16.0,55,0.00,,,0.00,,2013-01-07 16:22:00,
2013-01-07 10:33:00,43.0,27.0,30.17,WSW,242,4.0,7.0,53,0.00,,,0.00,,2013-01-07 16:33:00,
2013-01-07 10:43:00,43.0,27.0,30.17,WSW,242,4.0,7.0,53,0.00,,,0.00,,2013-01-07 16:43:00,
2013-01-07 10:53:00,44.0,28.0,30.16,SW,236,7.0,10.0,53,0.00,,,0.00,,2013-01-07 16:53:00,
2013-01-07 11:02:00,45.0,28.0,30.16,SSW,203,5.0,11.0,51,0.00,,,0.00,,2013-01-07 17:02:00,
2013-01-07 11:12:00,45.0,28.0,30.16,SSW,203,5.0,11.0,51,0.00,,,0.00,,2013-01-07 17:12:00,
2013-01-07 11:23:00,45.0,28.0,30.15,WSW,241,5.0,10.0,51,0.00,,,0.00,,2013-01-07 17:23:00,
2013-01-07 11:33:00,46.0,28.0,30.15,SSW,205,3.0,12.0,50,0.00,,,0.00,,2013-01-07 17:33:00,
2013-01-07 11:42:00,46.0,28.0,30.15,SSW,205,3.0,12.0,50,0.00,,,0.00,,2013-01-07 17:42:00,
2013-01-07 11:53:00,47.0,29.0,30.14,SW,226,6.0,13.0,49,0.00,,,0.00,,2013-01-07 17:53:00,
2013-01-07 12:02:00,46.0,28.0,30.14,SW,222,8.0,11.0,50,0.00,,,0.00,,2013-01-07 18:02:00,
2013-01-07 12:12:00,46.0,28.0,30.14,SW,222,8.0,11.0,50,0.00,,,0.00,,2013-01-07 18:12:00,
2013-01-07 12:23:00,47.0,30.0,30.13,SSW,205,3.0,12.0,51,0.00,,,0.00,,2013-01-07 18:23:00,
2013-01-07 12:32:00,47.0,29.0,30.11,SW,215,8.0,11.0,50,0.00,,,0.00,,2013-01-07 18:32:00,
2013-01-07 12:42:00,48.0,30.0,30.11,SSW,204,4.0,14.0,49,0.00,,,0.00,,2013-01-07 18:42:00,
2013-01-07 12:53:00,48.0,30.0,30.11,SSW,204,4.0,14.0,49,0.00,,,0.00,,2013-01-07 18:53:00,
2013-01-07 13:03:00,48.0,30.0,30.10,SW,221,7.0,14.0,49,0.00,,,0.00,,2013-01-07 19:03:00,
2013-01-07 13:12:00,48.0,30.0,30.10,SW,221,7.0,14.0,49,0.00,,,0.00,,2013-01-07 19:12:00,
2013-01-07 13:22:00,48.0,30.0,30.09,SW,218,3.0,12.0,49,0.00,,,0.00,,2013-01-07 19:22:00,
2013-01-07 13:33:00,49.0,30.0,30.08,SSW,213,4.0,13.0,48,0.00,,,0.00,,2013-01-07 19:33:00,
2013-01-07 13:42:00,49.0,30.0,30.08,SSW,213,4.0,13.0,48,0.00,,,0.00,,2013-01-07 19:42:00,
2013-01-07 13:53:00,50.0,31.0,30.06,SSW,208,5.0,13.0,48,0.00,,,0.00,,2013-01-07 19:53:00,
2013-01-07 14:03:00,50.0,30.0,30.06,SSW,200,11.0,15.0,46,0.00,,,0.00,,2013-01-07 20:03:00,
2013-01-07 14:12:00,50.0,30.0,30.06,SSW,200,11.0,15.0,46,0.00,,,0.00,,2013-01-07 20:12:00,
2013-01-07 14:23:00,51.0,31.0,30.06,SW,232,8.0,13.0,46,0.00,,,0.00,,2013-01-07 20:23:00,
2013-01-07 14:33:00,51.0,30.0,30.05,West,273,6.0,15.0,45,0.00,,,0.00,,2013-01-07 20:33:00,
2013-01-07 14:42:00,51.0,30.0,30.05,West,273,6.0,15.0,45,0.00,,,0.00,,2013-01-07 20:42:00,
2013-01-07 14:53:00,51.0,30.0,30.06,WSW,239,9.0,14.0,44,0.00,,,0.00,,2013-01-07 20:53:00,
2013-01-07 15:02:00,51.0,30.0,30.05,South,191,5.0,16.0,44,0.00,,,0.00,,2013-01-07 21:02:00,
2013-01-07 15:12:00,51.0,30.0,30.05,South,191,5.0,16.0,44,0.00,,,0.00,,2013-01-07 21:12:00,
2013-01-07 15:22:00,50.0,30.0,30.05,SW,229,8.0,13.0,46,0.00,,,0.00,,2013-01-07 21:22:00,
2013-01-07 15:33:00,51.0,31.0,30.05,WSW,245,2.0,9.0,46,0.00,,,0.00,,2013-01-07 21:33:00,
2013-01-07 15:42:00,51.0,31.0,30.05,WSW,245,2.0,9.0,46,0.00,,,0.00,,2013-01-07 21:42:00,
2013-01-07 15:53:00,51.0,30.0,30.04,South,188,4.0,12.0,45,0.00,,,0.00,,2013-01-07 21:53:00,
2013-01-07 16:02:00,52.0,30.0,30.04,SW,231,5.0,13.0,43,0.00,,,0.00,,2013-01-07 22:02:00,
2013-01-07 16:12:00,52.0,30.0,30.04,SW,231,5.0,13.0,43,0.00,,,0.00,,2013-01-07 22:12:00,
2013-01-07 16:22:00,52.0,31.0,30.04,SW,218,5.0,13.0,44,0.00,,,0.00,,2013-01-07 22:22:00,
2013-01-07 16:33:00,51.0,31.0,30.03,South,186,6.0,10.0,46,0.00,,,0.00,,2013-01-07 22:33:00,
2013-01-07 16:42:00,51.0,31.0,30.03,South,186,6.0,10.0,46,0.00,,,0.00,,2013-01-07 22:42:00,
2013-01-07 16:53:00,50.0,31.0,30.03,SW,219,1.0,9.0,48,0.00,,,0.00,,2013-01-07 22:53:00,
2013-01-07 17:02:00,50.0,32.0,30.03,SSW,200,3.0,6.0,49,0.00,,,0.00,,2013-01-07 23:02:00,
2013-01-07 17:12:00,50.0,32.0,30.03,SSW,200,3.0,6.0,49,0.00,,,0.00,,2013-01-07 23:12:00,
2013-01-07 17:22:00,49.0,31.0,30.03,SW,221,0.0,4.0,50,0.00,,,0.00,,2013-01-07 23:22:00,
2013-01-07 17:32:00,49.0,32.0,30.02,South,190,0.0,7.0,51,0.00,,,0.00,,2013-01-07 23:32:00,
2013-01-07 17:42:00,49.0,32.0,30.02,South,190,0.0,7.0,51,0.00,,,0.00,,2013-01-07 23:42:00,
2013-01-07 17:53:00,48.0,31.0,30.02,SSW,203,0.0,6.0,52,0.00,,,0.00,,2013-01-07 23:53:00,
2013-01-07 18:02:00,48.0,31.0,30.03,SW,229,3.0,4.0,52,0.00,,,0.00,,2013-01-08 00:02:00,
2013-01-07 18:12:00,48.0,31.0,30.03,SW,229,3.0,4.0,52,0.00,,,0.00,,2013-01-08 00:12:00,
2013-01-07 18:22:00,47.0,30.0,30.02,SSW,213,5.0,6.0,52,0.00,,,0.00,,2013-01-08 00:22:00,
2013-01-07 18:32:00,47.0,30.0,30.02,SSE,156,1.0,7.0,52,0.00,,,0.00,,2013-01-08 00:32:00,
2013-01-07 18:42:00,47.0,30.0,30.02,SSE,156,1.0,7.0,52,0.00,,,0.00,,2013-01-08 00:42:00,
2013-01-07 18:53:00,47.0,30.0,30.02,SSE,166,0.0,4.0,52,0.00,,,0.00,,2013-01-08 00:53:00,
2013-01-07 19:02:00,46.0,30.0,30.02,SSE,159,0.0,6.0,54,0.00,,,0.00,,2013-01-08 01:02:00,
2013-01-07 19:12:00,46.0,30.0,30.02,SSE,159,0.0,6.0,54,0.00,,,0.00,,2013-01-08 01:12:00,
2013-01-07 19:22:00,45.0,30.0,30.01,South,176,0.0,4.0,55,0.00,,,0.00,,2013-01-08 01:22:00,
2013-01-07 19:32:00,45.0,30.0,30.01,SSE,159,0.0,7.0,55,0.00,,,0.00,,2013-01-08 01:32:00,
2013-01-07 19:42:00,45.0,30.0,30.01,SSE,159,0.0,7.0,55,0.00,,,0.00,,2013-01-08 01:42:00,
2013-01-07 19:52:00,44.0,29.0,30.01,SW,222,0.0,5.0,56,0.00,,,0.00,,2013-01-08 01:52:00,
2013-01-07 20:02:00,44.0,29.0,30.00,SSW,203,4.0,7.0,56,0.00,,,0.00,,2013-01-08 02:02:00,
2013-01-07 20:12:00,44.0,29.0,30.00,SSW,203,4.0,7.0,56,0.00,,,0.00,,2013-01-08 02:12:00,
2013-01-07 20:22:00,44.0,29.0,30.01,SW,223,1.0,9.0,56,0.00,,,0.00,,2013-01-08 02:22:00,
2013-01-07 20:32:00,44.0,29.0,30.01,SSW,198,4.0,8.0,56,0.00,,,0.00,,2013-01-08 02:32:00,
2013-01-07 20:42:00,44.0,29.0,30.01,SSW,198,4.0,8.0,56,0.00,,,0.00,,2013-01-08 02:42:00,
2013-01-07 20:53:00,44.0,29.0,30.02,SSW,208,4.0,10.0,56,0.00,,,0.00,,2013-01-08 02:53:00,
2013-01-07 21:03:00,43.0,28.0,30.02,SSW,208,1.0,6.0,56,0.00,,,0.00,,2013-01-08 03:03:00,
2013-01-07 21:12:00,43.0,28.0,30.02,SSW,208,1.0,6.0,56,0.00,,,0.00,,2013-01-08 03:12:00,
2013-01-07 21:22:00,43.0,29.0,30.02,WSW,245,5.0,5.0,57,0.00,,,0.00,,2013-01-08 03:22:00,
2013-01-07 21:32:00,43.0,29.0,30.02,SW,233,6.0,9.0,58,0.00,,,0.00,,2013-01-08 03:32:00,
2013-01-07 21:42:00,43.0,29.0,30.02,SW,233,6.0,9.0,58,0.00,,,0.00,,2013-01-08 03:42:00,
2013-01-07 21:53:00,42.0,28.0,30.02,SSE,158,4.0,10.0,58,0.00,,,0.00,,2013-01-08 03:53:00,
2013-01-07 22:02:00,42.0,29.0,30.01,SSW,200,3.0,9.0,59,0.00,,,0.00,,2013-01-08 04:02:00,
2013-01-07 22:12:00,42.0,29.0,30.01,SSW,200,3.0,9.0,59,0.00,,,0.00,,2013-01-08 04:12:00,
2013-01-07 22:22:00,42.0,30.0,30.02,SSW,197,7.0,8.0,61,0.00,,,0.00,,2013-01-08 04:22:00,
2013-01-07 22:32:00,42.0,30.0,30.01,SW,224,9.0,11.0,62,0.00,,,0.00,,2013-01-08 04:32:00,
2013-01-07 22:42:00,42.0,30.0,30.01,SW,224,9.0,11.0,62,0.00,,,0.00,,2013-01-08 04:42:00,
2013-01-07 22:52:00,41.0,29.0,30.01,WSW,257,0.0,11.0,62,0.00,,,0.00,,2013-01-08 04:52:00,
2013-01-07 23:03:00,41.0,29.0,30.01,South,169,0.0,7.0,63,0.00,,,0.00,,2013-01-08 05:03:00,
2013-01-07 23:12:00,41.0,29.0,30.01,South,169,0.0,7.0,63,0.00,,,0.00,,2013-01-08 05:12:00,
2013-01-07 23:22:00,41.0,29.0,30.01,SSW,200,2.0,8.0,63,0.00,,,0.00,,2013-01-08 05:22:00,
2013-01-07 23:33:00,41.0,29.0,30.01,SSW,200,4.0,10.0,63,0.00,,,0.00,,2013-01-08 05:33:00,
2013-01-07 23:42:00,41.0,29.0,30.01,SSW,200,4.0,10.0,63,0.00,,,0.00,,2013-01-08 05:42:00,
2013-01-07 23:53:00,40.0,29.0,30.01,WSW,247,2.0,8.0,64,0.00,,,0.00,,2013-01-08 05:53:00,